Location: Newark
(45.5000°N, 11.4167°E)
Time: 21:06:09
(UTC+00:00)

Vanguard 3 - Pass Details

Date: 31 August 2019
Orbit: 508 x 3262 km, 33.3° (Epoch: 23 October)

Event Time Altitude Azimuth Distance (km) Brightness Sun altitude
Rises 09:40:51 0° 182° (S) 7,162 12.4 48.0°
Reaches altitude 10° 09:53:14 10° 149° (SSE) 5,643 12.4 49.2°
Maximum altitude 09:55:14 10° 142° (SE) 5,491 12.3 49.4°
Drops below altitude 10° 09:57:09 10° 135° (SE) 5,384 12.2 49.6°
Sets 10:06:37 0° 101° (E) 5,570 11.7 50.3°
